Regional Weather Roundup
Issued by NWS

Home | Current Version | Previous Version | Text Only | Print | Product List | Glossary On
Versions: 1 2 3 4 5 6 7 8 9 10 11 12 13 14 15 16 17 18 19 20 21 22 23 24 25 26 27 28 29 30 31 32 33 34 35 36 37 38 39 40 41 42 43 44 45 46 47 48 49 50
000
ASUS43 KLSX 280707
RWRMO

WEATHER SUMMARY FOR MISSOURI
NATIONAL WEATHER SERVICE SPRINGFIELD MO
100 AM CST TUE FEB 28 2017

NOTE: "FAIR" INDICATES FEW OR NO CLOUDS BELOW 12,000 FEET WITH NO
       SIGNIFICANT WEATHER AND/OR OBSTRUCTIONS TO VISIBILITY.
       CURRENT SKY AND/OR WEATHER CONDITIONS ARE NOT AVAILABLE FOR
       CHILLICOTHE AND FARMINGTON.

MOZ001>031-035>038-043-044-053-054-280800-
...NORTHERN AND WESTERN MISSOURI...

CITY           SKY/WX    TMP DP  RH WIND       PRES   REMARKS
KANSAS CTY INT CLOUDY    61  55  81 S16       29.72F
KANSAS C DTWN  CLOUDY    63  55  75 S17G24    29.73F
LEE`S SUMMIT   CLOUDY    61  55  81 S14       29.76F
ST JOSEPH      CLOUDY    59  54  83 S15       29.70F
CHILLICOTHE      N/A     57  47  69 S8        29.77F
KIRKSVILLE     CLOUDY    58  48  69 S15G24    29.80F

$$
MOZ066>068-077>081-088>096-101>105-280800-
...SOUTHWEST MISSOURI...

CITY           SKY/WX    TMP DP  RH WIND       PRES   REMARKS
SPRINGFIELD    CLOUDY    56  52  86 S17       29.88F
JOPLIN         PTCLDY    61  58  90 S15G28    29.83F
BRANSON        CLOUDY    59  55  88 S7        29.94S

$$
MOZ032>034-039>042-045>050-055>058-069>072-280800-
...CENTRAL MISSOURI...

CITY           SKY/WX    TMP DP  RH WIND       PRES   REMARKS
COLUMBIA       CLEAR     57  50  77 S21       29.87S
JEFFERSON CITY CLOUDY    59  50  72 S12G23    29.89S
ROLLA          MOCLDY    55  50  83 S18G29    29.91S
SEDALIA        CLOUDY    61  53  75 S21G29    29.83F
WHITEMAN AFB   CLOUDY    60  59  99 S16G22    29.80S
WARRENSBURG    CLOUDY    59  52  77 S17       29.79F
OSAGE BEACH    CLOUDY    57  51  80 S13G18    29.89F

$$
MOZ051-052-059>065-280800-
...EAST CENTRAL MISSOURI...

CITY           SKY/WX    TMP DP  RH WIND       PRES   REMARKS
ST LOUIS INTL  CLOUDY    58  51  78 S10       29.94S
SPIRIT OF STL  MOCLDY    57  51  80 S12G17    29.92F
ST CHARLES     CLOUDY    56  53  90 S10       29.93R

$$
MOZ072>076-082>087-097>100-106>115-280800-
...SOUTH CENTRAL AND SOUTHEAST MISSOURI...

CITY           SKY/WX    TMP DP  RH WIND       PRES   REMARKS
CAPE GIRARDEAU CLOUDY    54  49  83 S8        30.02F
FARMINGTON     CLOUDY    53  51  93 S12       29.99R
POPLAR BLUFF   LGT RAIN  55  52  89 S7        30.01F
WEST PLAINS    CLOUDY    55  51  86 S9        29.98S

$$



USA.gov is the U.S. government's official web portal to all federal, state and local government web resources and services.